Weather History for KPKD - October, 2014

Change the Weather History Date:

Friday, October 17, 2014

  Actual Average Record
Temperature  
Mean Temperature 50 °F -  
Max Temperature 54 °F 53 °F 80 °F (1953)
Min Temperature 45 °F 30 °F 10 °F (1952)
Degree Days  
Heating Degree Days 16    
Moisture  
Dew Point 40 °F    
Average Humidity 73    
Maximum Humidity 86    
Minimum Humidity 52    
Precipitation  
Precipitation 0.00 in - - ()
Sea Level Pressure  
Sea Level Pressure 29.87 in    
Wind  
Wind Speed 17 mph (NNW)    
Max Wind Speed 22 mph    
Max Gust Speed 31 mph    
Visibility 10 miles    
Events      
Averages and records for this station are not official NWS values.
T = Trace of Precipitation, MM = Missing Value Source: NWS Daily Summary

Daily Weather History Graph

Daily Weather History Graph

Search for Another Location

Airport or City:

Trip Planner

Search our weather history database for the weather conditions in past years. The results will help you decide how hot, cold, wet, or windy it might be!

Date:

Astronomy

Oct. 17, 2014 Rise Set
Actual Time 7:41 AM CDT 6:29 PM CDT
Civil Twilight 7:10 AM CDT 7:00 PM CDT
Nautical Twilight 6:35 AM CDT 7:35 PM CDT
Astronomical Twilight 5:59 AM CDT 8:10 PM CDT
Moon 1:25 AM CDT (10/17) 3:35 PM CDT (10/17)
Length of Visible Light 11h 49m
Length of Day
10h 48m
Waning Crescent, 32% of the Moon is Illuminated
Oct 17
Waning Crescent
Oct 23
New
Oct 30
First Quarter
Nov 6
Full
Nov 14
Last Quarter

Hourly Weather History & Observations

Time (CDT) Temp. Windchill Dew Point Humidity Pressure Visibility Wind Dir Wind Speed Gust Speed Precip Events Conditions
12:53 AM 48.9 °F - 44.1 °F 83% 29.61 in 10.0 mi NW 19.6 mph 25.3 mph N/A   Overcast
1:02 AM 48.9 °F - 43.0 °F 80% 29.60 in 10.0 mi NW 18.4 mph - N/A   Overcast
1:24 AM 48.0 °F - 43.0 °F 83% 29.60 in 10.0 mi NW 19.6 mph - N/A   Overcast
1:53 AM 48.0 °F - 43.0 °F 83% 29.62 in 10.0 mi WNW 15.0 mph - N/A   Overcast
2:20 AM 48.0 °F - 43.0 °F 83% 29.62 in 10.0 mi NW 19.6 mph 27.6 mph N/A   Overcast
2:53 AM 46.9 °F - 43.0 °F 86% 29.63 in 10.0 mi NW 16.1 mph - N/A   Overcast
3:05 AM 46.9 °F - 43.0 °F 86% 29.63 in 10.0 mi NNW 15.0 mph 26.5 mph N/A   Overcast
3:53 AM 46.9 °F - 42.1 °F 83% 29.65 in 10.0 mi NW 15.0 mph - N/A   Overcast
4:42 AM 46.9 °F - 42.1 °F 83% 29.66 in 10.0 mi NW 17.3 mph 27.6 mph N/A   Overcast
4:53 AM 46.9 °F - 42.1 °F 83% 29.68 in 10.0 mi NW 16.1 mph 25.3 mph N/A   Overcast
5:53 AM 48.0 °F - 42.1 °F 80% 29.71 in 10.0 mi NW 19.6 mph - N/A   Overcast
6:53 AM 46.9 °F - 42.1 °F 83% 29.74 in 10.0 mi NW 19.6 mph 24.2 mph N/A   Overcast
7:53 AM 48.0 °F - 42.1 °F 80% 29.78 in 10.0 mi NW 18.4 mph 29.9 mph N/A   Overcast
8:53 AM 48.9 °F - 42.1 °F 77% 29.82 in 10.0 mi NNW 15.0 mph 24.2 mph N/A   Overcast
9:53 AM 50.0 °F - 42.1 °F 74% 29.85 in 10.0 mi NNW 18.4 mph 26.5 mph N/A   Overcast
10:53 AM 50.0 °F - 41.0 °F 71% 29.89 in 10.0 mi North 15.0 mph - N/A   Overcast
11:53 AM 51.1 °F - 37.9 °F 61% 29.92 in 10.0 mi North 21.9 mph 31.1 mph N/A   Overcast
12:03 PM 52.0 °F - 37.0 °F 57% 29.91 in 10.0 mi NNW 19.6 mph 29.9 mph N/A   Overcast
12:53 PM 51.1 °F - 39.9 °F 66% 29.95 in 10.0 mi NNW 15.0 mph - N/A   Mostly Cloudy
1:02 PM 51.1 °F - 39.0 °F 63% 29.92 in 10.0 mi NNW 16.1 mph 23.0 mph N/A   Overcast
1:09 PM 52.0 °F - 39.0 °F 61% 29.92 in 10.0 mi NNW 18.4 mph 25.3 mph N/A   Overcast
1:53 PM 51.1 °F - 39.0 °F 63% 29.96 in 10.0 mi NNW 15.0 mph 25.3 mph N/A   Overcast
2:00 PM 52.0 °F - 39.0 °F 61% 29.93 in 10.0 mi NNW 16.1 mph - N/A   Overcast
2:09 PM 51.1 °F - 39.0 °F 63% 29.94 in 10.0 mi NNW 17.3 mph 28.8 mph N/A   Overcast
2:18 PM 53.1 °F - 39.0 °F 59% 29.94 in 10.0 mi NNW 15.0 mph 23.0 mph N/A   Overcast
2:53 PM 53.1 °F - 36.0 °F 52% 29.97 in 10.0 mi NNW 17.3 mph 25.3 mph N/A   Mostly Cloudy
3:53 PM 53.1 °F - 37.0 °F 55% 29.99 in 10.0 mi North 15.0 mph 26.5 mph N/A   Clear
4:51 PM 50.0 °F - 39.2 °F 66% 30.00 in 10.0 mi North 16.1 mph 24.2 mph N/A   Mostly Cloudy
4:53 PM 50.0 °F - 39.0 °F 66% 30.03 in 10.0 mi North 17.3 mph - N/A   Mostly Cloudy
5:53 PM 48.9 °F - 39.0 °F 69% 30.06 in 10.0 mi NNW 13.8 mph - N/A   Overcast
6:53 PM 48.0 °F - 39.0 °F 71% 30.08 in 10.0 mi NNW 13.8 mph - N/A   Overcast
7:53 PM 48.0 °F - 39.0 °F 71% 30.10 in 10.0 mi NNW 11.5 mph - N/A   Overcast
8:53 PM 48.0 °F - 39.9 °F 74% 30.11 in 10.0 mi NNW 12.7 mph - N/A   Overcast
9:53 PM 46.9 °F - 39.9 °F 77% 30.14 in 10.0 mi North 10.4 mph - N/A   Overcast
10:53 PM 46.0 °F 40.2 °F 39.0 °F 76% 30.16 in 10.0 mi North 12.7 mph - N/A   Overcast
11:53 PM 45.0 °F 39.7 °F 37.9 °F 76% 30.17 in 10.0 mi North 10.4 mph - N/A   Overcast